Hourly Data Report for September 15, 2020

BRIER ISLAND
NOVA SCOTIA
Current Station Operator: ECCC - MSC

44°17'09.000" N
66°20'48.000" W
15.80 m
8200604
71988
WVU

Download Data

Hourly Data (September 2020)
Hourly Data Report for September 15, 2020
TIME Temp Definition
°C
Dew Point Definition
°C
Rel Hum Definition
%
Wind Dir Definition
10's deg

Wind Spd Definition
km/h
Visibility Definition
km
Stn Press Definition
kPa
Hmdx Definition


Wind Chill Definition


Weather Definition


00:00 13.1 9.0 76 33 27   101.80     LegendNANA
01:00 12.9 8.0 72 33 30   101.84     LegendNANA
02:00 12.6 5.9 64 33 37   101.86     LegendNANA
03:00 12.0 6.1 67 34 38   101.91     LegendNANA
04:00 11.7 6.0 68 34 33   101.94     LegendNANA
05:00 11.4 5.8 69 34 38   101.98     LegendNANA
06:00 11.3 5.9 70 34 35   102.05     LegendNANA
07:00 11.1 5.8 70 34 34   102.13     LegendNANA
08:00 11.1 5.3 67 33 34   102.17     LegendNANA
09:00 11.2 5.5 68 34 33   102.19     LegendNANA
10:00 11.5 6.3 71 34 30   102.25     LegendNANA
11:00 12.0 6.0 67 34 25   102.23     LegendNANA
12:00 12.5 6.7 67 34 22   102.22     LegendNANA
13:00 12.3 5.7 64 33 20   102.18     LegendNANA
14:00 12.4 7.0 70 32 15   102.16     LegendNANA
15:00 12.8 6.7 67 31 21   102.12     LegendNANA
16:00 13.1 6.8 65 29 14   102.09     LegendNANA
17:00 12.2 6.9 70 27 11   102.14     LegendNANA
18:00 11.4 7.8 79 26 19   102.16     LegendNANA
19:00 10.8 8.3 84 26 11   102.20     LegendNANA
20:00 11.4 9.1 86 25 14   102.25     LegendNANA
21:00 11.6 9.7 88 25 15   102.26     LegendNANA
22:00 11.1 10.4 95 23 9   102.27     LegendNANA
23:00 11.4 10.4 94 23 10   102.24     LegendNANA

Notes on Data Quality.

Legend

  • E = Estimated
  • M = Missing
  • NA = Not Available*
  • [empty] = Indicates an unobserved value
Date modified: